<?xml version="1.0" encoding="UTF-8" standalone="yes"?>
<gpx xmlns="http://www.topografix.com/GPX/1/1" version="1.1">
  <trk>
 <name>02A</name>
 <desc>02A</desc>
<trkseg>
<trkpt lat="45.6009900" lon="8.2286800">
<time>2017-08-08T14:24:25.060Z</time>
</trkpt>
<trkpt lat="45.6014400" lon="8.2286100">
<time>2017-08-08T14:24:25.060Z</time>
</trkpt>
<trkpt lat="45.6016600" lon="8.2285600">
<time>2017-08-08T14:24:25.060Z</time>
</trkpt>
<trkpt lat="45.6017900" lon="8.2284800">
<time>2017-08-08T14:24:25.060Z</time>
</trkpt>
<trkpt lat="45.6019800" lon="8.2283900">
<time>2017-08-08T14:24:25.060Z</time>
</trkpt>
<trkpt lat="45.6021000" lon="8.2283600">
<time>2017-08-08T14:24:25.060Z</time>
</trkpt>
<trkpt lat="45.6022600" lon="8.2283500">
<time>2017-08-08T14:24:25.060Z</time>
</trkpt>
<trkpt lat="45.6024200" lon="8.2281500">
<time>2017-08-08T14:24:25.060Z</time>
</trkpt>
<trkpt lat="45.6027300" lon="8.2281000">
<time>2017-08-08T14:24:25.060Z</time>
</trkpt>
<trkpt lat="45.6029200" lon="8.2280500">
<time>2017-08-08T14:24:25.060Z</time>
</trkpt>
<trkpt lat="45.6031000" lon="8.2280300">
<time>2017-08-08T14:24:25.061Z</time>
</trkpt>
<trkpt lat="45.6032800" lon="8.2280500">
<time>2017-08-08T14:24:25.061Z</time>
</trkpt>
<trkpt lat="45.6033000" lon="8.2281700">
<time>2017-08-08T14:24:25.061Z</time>
</trkpt>
<trkpt lat="45.6033200" lon="8.2283100">
<time>2017-08-08T14:24:25.061Z</time>
</trkpt>
<trkpt lat="45.6033900" lon="8.2284400">
<time>2017-08-08T14:24:25.061Z</time>
</trkpt>
<trkpt lat="45.6035000" lon="8.2285100">
<time>2017-08-08T14:24:25.061Z</time>
</trkpt>
<trkpt lat="45.6036900" lon="8.2285200">
<time>2017-08-08T14:24:25.061Z</time>
</trkpt>
<trkpt lat="45.6038400" lon="8.2285000">
<time>2017-08-08T14:24:25.061Z</time>
</trkpt>
<trkpt lat="45.6039900" lon="8.2286100">
<time>2017-08-08T14:24:25.061Z</time>
</trkpt>
<trkpt lat="45.6041000" lon="8.2287500">
<time>2017-08-08T14:24:25.061Z</time>
</trkpt>
<trkpt lat="45.6041900" lon="8.2287900">
<time>2017-08-08T14:24:25.061Z</time>
</trkpt>
<trkpt lat="45.6043100" lon="8.2291600">
<time>2017-08-08T14:24:25.062Z</time>
</trkpt>
<trkpt lat="45.6044800" lon="8.2294300">
<time>2017-08-08T14:24:25.062Z</time>
</trkpt>
<trkpt lat="45.6045700" lon="8.2295600">
<time>2017-08-08T14:24:25.062Z</time>
</trkpt>
<trkpt lat="45.6046000" lon="8.2296300">
<time>2017-08-08T14:24:25.062Z</time>
</trkpt>
<trkpt lat="45.6046500" lon="8.2297700">
<time>2017-08-08T14:24:25.062Z</time>
</trkpt>
<trkpt lat="45.6047600" lon="8.2298600">
<time>2017-08-08T14:24:25.062Z</time>
</trkpt>
<trkpt lat="45.6049500" lon="8.2299100">
<time>2017-08-08T14:24:25.062Z</time>
</trkpt>
<trkpt lat="45.6052200" lon="8.2299200">
<time>2017-08-08T14:24:25.062Z</time>
</trkpt>
<trkpt lat="45.6053200" lon="8.2299100">
<time>2017-08-08T14:24:25.062Z</time>
</trkpt>
<trkpt lat="45.6054100" lon="8.2299000">
<time>2017-08-08T14:24:25.062Z</time>
</trkpt>
<trkpt lat="45.6056900" lon="8.2298800">
<time>2017-08-08T14:24:25.063Z</time>
</trkpt>
<trkpt lat="45.6059200" lon="8.2298900">
<time>2017-08-08T14:24:25.063Z</time>
</trkpt>
<trkpt lat="45.6060600" lon="8.2298900">
<time>2017-08-08T14:24:25.063Z</time>
</trkpt>
<trkpt lat="45.6062200" lon="8.2299100">
<time>2017-08-08T14:24:25.063Z</time>
</trkpt>
<trkpt lat="45.6063300" lon="8.2300200">
<time>2017-08-08T14:24:25.063Z</time>
</trkpt>
<trkpt lat="45.6065000" lon="8.2301800">
<time>2017-08-08T14:24:25.063Z</time>
</trkpt>
<trkpt lat="45.6066900" lon="8.2303100">
<time>2017-08-08T14:24:25.063Z</time>
</trkpt>
<trkpt lat="45.6068700" lon="8.2304400">
<time>2017-08-08T14:24:25.063Z</time>
</trkpt>
<trkpt lat="45.6069000" lon="8.2306100">
<time>2017-08-08T14:24:25.063Z</time>
</trkpt>
<trkpt lat="45.6071200" lon="8.2305700">
<time>2017-08-08T14:24:25.063Z</time>
</trkpt>
<trkpt lat="45.6074800" lon="8.2305400">
<time>2017-08-08T14:24:25.063Z</time>
</trkpt>
<trkpt lat="45.6078900" lon="8.2305800">
<time>2017-08-08T14:24:25.064Z</time>
</trkpt>
<trkpt lat="45.6081200" lon="8.2306900">
<time>2017-08-08T14:24:25.064Z</time>
</trkpt>
<trkpt lat="45.6082200" lon="8.2309000">
<time>2017-08-08T14:24:25.064Z</time>
</trkpt>
<trkpt lat="45.6084000" lon="8.2311400">
<time>2017-08-08T14:24:25.064Z</time>
</trkpt>
<trkpt lat="45.6088000" lon="8.2315700">
<time>2017-08-08T14:24:25.064Z</time>
</trkpt>
<trkpt lat="45.6089500" lon="8.2317900">
<time>2017-08-08T14:24:25.064Z</time>
</trkpt>
<trkpt lat="45.6090900" lon="8.2321800">
<time>2017-08-08T14:24:25.064Z</time>
</trkpt>
<trkpt lat="45.6092600" lon="8.2325500">
<time>2017-08-08T14:24:25.064Z</time>
</trkpt>
<trkpt lat="45.6095300" lon="8.2328700">
<time>2017-08-08T14:24:25.064Z</time>
</trkpt>
<trkpt lat="45.6096900" lon="8.2330800">
<time>2017-08-08T14:24:25.064Z</time>
</trkpt>
<trkpt lat="45.6098200" lon="8.2332200">
<time>2017-08-08T14:24:25.065Z</time>
</trkpt>
<trkpt lat="45.6099300" lon="8.2332500">
<time>2017-08-08T14:24:25.065Z</time>
</trkpt>
<trkpt lat="45.6099700" lon="8.2332400">
<time>2017-08-08T14:24:25.065Z</time>
</trkpt>
<trkpt lat="45.6100000" lon="8.2332300">
<time>2017-08-08T14:24:25.065Z</time>
</trkpt>
<trkpt lat="45.6100500" lon="8.2332100">
<time>2017-08-08T14:24:25.065Z</time>
</trkpt>
<trkpt lat="45.6101400" lon="8.2330800">
<time>2017-08-08T14:24:25.065Z</time>
</trkpt>
<trkpt lat="45.6102600" lon="8.2328900">
<time>2017-08-08T14:24:25.065Z</time>
</trkpt>
<trkpt lat="45.6104000" lon="8.2327000">
<time>2017-08-08T14:24:25.065Z</time>
</trkpt>
<trkpt lat="45.6104900" lon="8.2325600">
<time>2017-08-08T14:24:25.065Z</time>
</trkpt>
<trkpt lat="45.6105400" lon="8.2325000">
<time>2017-08-08T14:24:25.065Z</time>
</trkpt>
<trkpt lat="45.6106400" lon="8.2324300">
<time>2017-08-08T14:24:25.066Z</time>
</trkpt>
<trkpt lat="45.6107600" lon="8.2323500">
<time>2017-08-08T14:24:25.066Z</time>
</trkpt>
<trkpt lat="45.6108700" lon="8.2323000">
<time>2017-08-08T14:24:25.073Z</time>
</trkpt>
<trkpt lat="45.6109700" lon="8.2322400">
<time>2017-08-08T14:24:25.073Z</time>
</trkpt>
<trkpt lat="45.6110700" lon="8.2321800">
<time>2017-08-08T14:24:25.073Z</time>
</trkpt>
<trkpt lat="45.6111300" lon="8.2321000">
<time>2017-08-08T14:24:25.073Z</time>
</trkpt>
<trkpt lat="45.6112200" lon="8.2319500">
<time>2017-08-08T14:24:25.073Z</time>
</trkpt>
<trkpt lat="45.6112800" lon="8.2318500">
<time>2017-08-08T14:24:25.073Z</time>
</trkpt>
<trkpt lat="45.6113600" lon="8.2318100">
<time>2017-08-08T14:24:25.073Z</time>
</trkpt>
<trkpt lat="45.6114900" lon="8.2317500">
<time>2017-08-08T14:24:25.073Z</time>
</trkpt>
<trkpt lat="45.6115500" lon="8.2317500">
<time>2017-08-08T14:24:25.074Z</time>
</trkpt>
<trkpt lat="45.6116400" lon="8.2317700">
<time>2017-08-08T14:24:25.074Z</time>
</trkpt>
<trkpt lat="45.6118300" lon="8.2317900">
<time>2017-08-08T14:24:25.074Z</time>
</trkpt>
<trkpt lat="45.6119100" lon="8.2317900">
<time>2017-08-08T14:24:25.074Z</time>
</trkpt>
<trkpt lat="45.6119700" lon="8.2317400">
<time>2017-08-08T14:24:25.074Z</time>
</trkpt>
<trkpt lat="45.6120300" lon="8.2316700">
<time>2017-08-08T14:24:25.074Z</time>
</trkpt>
<trkpt lat="45.6121000" lon="8.2315600">
<time>2017-08-08T14:24:25.074Z</time>
</trkpt>
<trkpt lat="45.6121600" lon="8.2314500">
<time>2017-08-08T14:24:25.074Z</time>
</trkpt>
<trkpt lat="45.6122300" lon="8.2314100">
<time>2017-08-08T14:24:25.074Z</time>
</trkpt>
<trkpt lat="45.6123400" lon="8.2313000">
<time>2017-08-08T14:24:25.074Z</time>
</trkpt>
<trkpt lat="45.6124000" lon="8.2312300">
<time>2017-08-08T14:24:25.075Z</time>
</trkpt>
<trkpt lat="45.6124300" lon="8.2311400">
<time>2017-08-08T14:24:25.075Z</time>
</trkpt>
<trkpt lat="45.6124800" lon="8.2310500">
<time>2017-08-08T14:24:25.075Z</time>
</trkpt>
<trkpt lat="45.6125400" lon="8.2309700">
<time>2017-08-08T14:24:25.075Z</time>
</trkpt>
<trkpt lat="45.6125800" lon="8.2309300">
<time>2017-08-08T14:24:25.075Z</time>
</trkpt>
<trkpt lat="45.6126300" lon="8.2309200">
<time>2017-08-08T14:24:25.075Z</time>
</trkpt>
<trkpt lat="45.6126600" lon="8.2309400">
<time>2017-08-08T14:24:25.075Z</time>
</trkpt>
<trkpt lat="45.6127000" lon="8.2309100">
<time>2017-08-08T14:24:25.075Z</time>
</trkpt>
<trkpt lat="45.6127400" lon="8.2308400">
<time>2017-08-08T14:24:25.075Z</time>
</trkpt>
<trkpt lat="45.6127800" lon="8.2307400">
<time>2017-08-08T14:24:25.075Z</time>
</trkpt>
<trkpt lat="45.6128200" lon="8.2306700">
<time>2017-08-08T14:24:25.075Z</time>
</trkpt>
<trkpt lat="45.6129200" lon="8.2305900">
<time>2017-08-08T14:24:25.076Z</time>
</trkpt>
<trkpt lat="45.6130100" lon="8.2305300">
<time>2017-08-08T14:24:25.076Z</time>
</trkpt>
<trkpt lat="45.6130700" lon="8.2305100">
<time>2017-08-08T14:24:25.076Z</time>
</trkpt>
<trkpt lat="45.6131200" lon="8.2305700">
<time>2017-08-08T14:24:25.076Z</time>
</trkpt>
<trkpt lat="45.6131600" lon="8.2306200">
<time>2017-08-08T14:24:25.076Z</time>
</trkpt>
<trkpt lat="45.6131900" lon="8.2307500">
<time>2017-08-08T14:24:25.076Z</time>
</trkpt>
<trkpt lat="45.6132100" lon="8.2308000">
<time>2017-08-08T14:24:25.076Z</time>
</trkpt>
<trkpt lat="45.6132500" lon="8.2308600">
<time>2017-08-08T14:24:25.076Z</time>
</trkpt>
<trkpt lat="45.6132900" lon="8.2308800">
<time>2017-08-08T14:24:25.076Z</time>
</trkpt>
<trkpt lat="45.6133700" lon="8.2309300">
<time>2017-08-08T14:24:25.076Z</time>
</trkpt>
<trkpt lat="45.6134500" lon="8.2309800">
<time>2017-08-08T14:24:25.077Z</time>
</trkpt>
<trkpt lat="45.6134900" lon="8.2310100">
<time>2017-08-08T14:24:25.077Z</time>
</trkpt>
<trkpt lat="45.6134900" lon="8.2310800">
<time>2017-08-08T14:24:25.077Z</time>
</trkpt>
<trkpt lat="45.6134900" lon="8.2312000">
<time>2017-08-08T14:24:25.077Z</time>
</trkpt>
<trkpt lat="45.6135200" lon="8.2314300">
<time>2017-08-08T14:24:25.077Z</time>
</trkpt>
<trkpt lat="45.6135300" lon="8.2315100">
<time>2017-08-08T14:24:25.077Z</time>
</trkpt>
<trkpt lat="45.6135800" lon="8.2316900">
<time>2017-08-08T14:24:25.077Z</time>
</trkpt>
<trkpt lat="45.6136200" lon="8.2317800">
<time>2017-08-08T14:24:25.077Z</time>
</trkpt>
<trkpt lat="45.6136300" lon="8.2318800">
<time>2017-08-08T14:24:25.077Z</time>
</trkpt>
<trkpt lat="45.6136800" lon="8.2320800">
<time>2017-08-08T14:24:25.077Z</time>
</trkpt>
<trkpt lat="45.6136900" lon="8.2321600">
<time>2017-08-08T14:24:25.077Z</time>
</trkpt>
<trkpt lat="45.6137100" lon="8.2322700">
<time>2017-08-08T14:24:25.078Z</time>
</trkpt>
<trkpt lat="45.6137300" lon="8.2324100">
<time>2017-08-08T14:24:25.078Z</time>
</trkpt>
<trkpt lat="45.6137500" lon="8.2325800">
<time>2017-08-08T14:24:25.078Z</time>
</trkpt>
<trkpt lat="45.6137600" lon="8.2326400">
<time>2017-08-08T14:24:25.078Z</time>
</trkpt>
<trkpt lat="45.6138100" lon="8.2327300">
<time>2017-08-08T14:24:25.078Z</time>
</trkpt>
<trkpt lat="45.6138500" lon="8.2328000">
<time>2017-08-08T14:24:25.078Z</time>
</trkpt>
<trkpt lat="45.6139300" lon="8.2329200">
<time>2017-08-08T14:24:25.078Z</time>
</trkpt>
<trkpt lat="45.6139700" lon="8.2329900">
<time>2017-08-08T14:24:25.078Z</time>
</trkpt>
<trkpt lat="45.6140100" lon="8.2330300">
<time>2017-08-08T14:24:25.078Z</time>
</trkpt>
<trkpt lat="45.6140500" lon="8.2330200">
<time>2017-08-08T14:24:25.078Z</time>
</trkpt>
<trkpt lat="45.6140800" lon="8.2330100">
<time>2017-08-08T14:24:25.079Z</time>
</trkpt>
<trkpt lat="45.6141500" lon="8.2330200">
<time>2017-08-08T14:24:25.079Z</time>
</trkpt>
<trkpt lat="45.6141900" lon="8.2330400">
<time>2017-08-08T14:24:25.079Z</time>
</trkpt>
<trkpt lat="45.6142300" lon="8.2330800">
<time>2017-08-08T14:24:25.079Z</time>
</trkpt>
<trkpt lat="45.6142600" lon="8.2331300">
<time>2017-08-08T14:24:25.079Z</time>
</trkpt>
<trkpt lat="45.6142900" lon="8.2332200">
<time>2017-08-08T14:24:25.079Z</time>
</trkpt>
<trkpt lat="45.6143200" lon="8.2332600">
<time>2017-08-08T14:24:25.079Z</time>
</trkpt>
<trkpt lat="45.6143600" lon="8.2333000">
<time>2017-08-08T14:24:25.079Z</time>
</trkpt>
<trkpt lat="45.6144000" lon="8.2333100">
<time>2017-08-08T14:24:25.079Z</time>
</trkpt>
<trkpt lat="45.6144300" lon="8.2332800">
<time>2017-08-08T14:24:25.079Z</time>
</trkpt>
<trkpt lat="45.6144600" lon="8.2331900">
<time>2017-08-08T14:24:25.080Z</time>
</trkpt>
<trkpt lat="45.6145000" lon="8.2330900">
<time>2017-08-08T14:24:25.080Z</time>
</trkpt>
<trkpt lat="45.6145400" lon="8.2330100">
<time>2017-08-08T14:24:25.080Z</time>
</trkpt>
<trkpt lat="45.6146000" lon="8.2329000">
<time>2017-08-08T14:24:25.080Z</time>
</trkpt>
<trkpt lat="45.6146600" lon="8.2327800">
<time>2017-08-08T14:24:25.080Z</time>
</trkpt>
<trkpt lat="45.6147000" lon="8.2327000">
<time>2017-08-08T14:24:25.080Z</time>
</trkpt>
<trkpt lat="45.6147700" lon="8.2326200">
<time>2017-08-08T14:24:25.080Z</time>
</trkpt>
<trkpt lat="45.6148200" lon="8.2325800">
<time>2017-08-08T14:24:25.080Z</time>
</trkpt>
<trkpt lat="45.6148700" lon="8.2325700">
<time>2017-08-08T14:24:25.080Z</time>
</trkpt>
<trkpt lat="45.6149300" lon="8.2326000">
<time>2017-08-08T14:24:25.080Z</time>
</trkpt>
<trkpt lat="45.6150000" lon="8.2326400">
<time>2017-08-08T14:24:25.081Z</time>
</trkpt>
<trkpt lat="45.6150300" lon="8.2327600">
<time>2017-08-08T14:24:25.081Z</time>
</trkpt>
<trkpt lat="45.6151000" lon="8.2328600">
<time>2017-08-08T14:24:25.081Z</time>
</trkpt>
<trkpt lat="45.6151500" lon="8.2329400">
<time>2017-08-08T14:24:25.081Z</time>
</trkpt>
<trkpt lat="45.6152200" lon="8.2330000">
<time>2017-08-08T14:24:25.081Z</time>
</trkpt>
<trkpt lat="45.6153200" lon="8.2331000">
<time>2017-08-08T14:24:25.081Z</time>
</trkpt>
<trkpt lat="45.6154500" lon="8.2331400">
<time>2017-08-08T14:24:25.081Z</time>
</trkpt>
<trkpt lat="45.6155300" lon="8.2331700">
<time>2017-08-08T14:24:25.081Z</time>
</trkpt>
<trkpt lat="45.6155800" lon="8.2332000">
<time>2017-08-08T14:24:25.081Z</time>
</trkpt>
<trkpt lat="45.6156300" lon="8.2332300">
<time>2017-08-08T14:24:25.081Z</time>
</trkpt>
<trkpt lat="45.6156900" lon="8.2332500">
<time>2017-08-08T14:24:25.081Z</time>
</trkpt>
<trkpt lat="45.6157500" lon="8.2332900">
<time>2017-08-08T14:24:25.082Z</time>
</trkpt>
<trkpt lat="45.6157900" lon="8.2333000">
<time>2017-08-08T14:24:25.082Z</time>
</trkpt>
<trkpt lat="45.6158500" lon="8.2333500">
<time>2017-08-08T14:24:25.082Z</time>
</trkpt>
<trkpt lat="45.6158900" lon="8.2333900">
<time>2017-08-08T14:24:25.082Z</time>
</trkpt>
<trkpt lat="45.6159300" lon="8.2333900">
<time>2017-08-08T14:24:25.082Z</time>
</trkpt>
<trkpt lat="45.6160100" lon="8.2333500">
<time>2017-08-08T14:24:25.082Z</time>
</trkpt>
<trkpt lat="45.6160700" lon="8.2333000">
<time>2017-08-08T14:24:25.082Z</time>
</trkpt>
<trkpt lat="45.6161300" lon="8.2332100">
<time>2017-08-08T14:24:25.082Z</time>
</trkpt>
<trkpt lat="45.6161900" lon="8.2331800">
<time>2017-08-08T14:24:25.082Z</time>
</trkpt>
<trkpt lat="45.6162400" lon="8.2331600">
<time>2017-08-08T14:24:25.083Z</time>
</trkpt>
<trkpt lat="45.6162900" lon="8.2331600">
<time>2017-08-08T14:24:25.083Z</time>
</trkpt>
<trkpt lat="45.6163600" lon="8.2331700">
<time>2017-08-08T14:24:25.083Z</time>
</trkpt>
<trkpt lat="45.6164200" lon="8.2331800">
<time>2017-08-08T14:24:25.083Z</time>
</trkpt>
<trkpt lat="45.6164900" lon="8.2331800">
<time>2017-08-08T14:24:25.083Z</time>
</trkpt>
<trkpt lat="45.6166200" lon="8.2332100">
<time>2017-08-08T14:24:25.083Z</time>
</trkpt>
<trkpt lat="45.6167500" lon="8.2332600">
<time>2017-08-08T14:24:25.083Z</time>
</trkpt>
<trkpt lat="45.6167800" lon="8.2333100">
<time>2017-08-08T14:24:25.083Z</time>
</trkpt>
<trkpt lat="45.6168200" lon="8.2333800">
<time>2017-08-08T14:24:25.083Z</time>
</trkpt>
<trkpt lat="45.6168600" lon="8.2334700">
<time>2017-08-08T14:24:25.083Z</time>
</trkpt>
<trkpt lat="45.6169500" lon="8.2336200">
<time>2017-08-08T14:24:25.084Z</time>
</trkpt>
<trkpt lat="45.6169900" lon="8.2336800">
<time>2017-08-08T14:24:25.084Z</time>
</trkpt>
<trkpt lat="45.6170400" lon="8.2337300">
<time>2017-08-08T14:24:25.084Z</time>
</trkpt>
<trkpt lat="45.6171000" lon="8.2338100">
<time>2017-08-08T14:24:25.084Z</time>
</trkpt>
<trkpt lat="45.6171700" lon="8.2338800">
<time>2017-08-08T14:24:25.084Z</time>
</trkpt>
<trkpt lat="45.6172100" lon="8.2339200">
<time>2017-08-08T14:24:25.084Z</time>
</trkpt>
<trkpt lat="45.6172900" lon="8.2340500">
<time>2017-08-08T14:24:25.084Z</time>
</trkpt>
<trkpt lat="45.6173500" lon="8.2341100">
<time>2017-08-08T14:24:25.084Z</time>
</trkpt>
<trkpt lat="45.6173900" lon="8.2341500">
<time>2017-08-08T14:24:25.084Z</time>
</trkpt>
<trkpt lat="45.6174800" lon="8.2342100">
<time>2017-08-08T14:24:25.084Z</time>
</trkpt>
<trkpt lat="45.6175100" lon="8.2342400">
<time>2017-08-08T14:24:25.084Z</time>
</trkpt>
<trkpt lat="45.6175300" lon="8.2343100">
<time>2017-08-08T14:24:25.085Z</time>
</trkpt>
<trkpt lat="45.6175600" lon="8.2343900">
<time>2017-08-08T14:24:25.085Z</time>
</trkpt>
<trkpt lat="45.6176100" lon="8.2345100">
<time>2017-08-08T14:24:25.085Z</time>
</trkpt>
<trkpt lat="45.6176800" lon="8.2347000">
<time>2017-08-08T14:24:25.085Z</time>
</trkpt>
<trkpt lat="45.6177300" lon="8.2348200">
<time>2017-08-08T14:24:25.085Z</time>
</trkpt>
<trkpt lat="45.6178000" lon="8.2350600">
<time>2017-08-08T14:24:25.085Z</time>
</trkpt>
<trkpt lat="45.6178500" lon="8.2352000">
<time>2017-08-08T14:24:25.085Z</time>
</trkpt>
<trkpt lat="45.6178900" lon="8.2352600">
<time>2017-08-08T14:24:25.085Z</time>
</trkpt>
<trkpt lat="45.6179300" lon="8.2352900">
<time>2017-08-08T14:24:25.085Z</time>
</trkpt>
<trkpt lat="45.6179800" lon="8.2353600">
<time>2017-08-08T14:24:25.085Z</time>
</trkpt>
<trkpt lat="45.6179800" lon="8.2353800">
<time>2017-08-08T14:24:25.086Z</time>
</trkpt>
<trkpt lat="45.6179800" lon="8.2354500">
<time>2017-08-08T14:24:25.086Z</time>
</trkpt>
<trkpt lat="45.6179500" lon="8.2355400">
<time>2017-08-08T14:24:25.086Z</time>
</trkpt>
<trkpt lat="45.6179400" lon="8.2356300">
<time>2017-08-08T14:24:25.086Z</time>
</trkpt>
<trkpt lat="45.6179200" lon="8.2357400">
<time>2017-08-08T14:24:25.086Z</time>
</trkpt>
<trkpt lat="45.6179200" lon="8.2358800">
<time>2017-08-08T14:24:25.086Z</time>
</trkpt>
<trkpt lat="45.6179200" lon="8.2359500">
<time>2017-08-08T14:24:25.086Z</time>
</trkpt>
<trkpt lat="45.6179500" lon="8.2360600">
<time>2017-08-08T14:24:25.086Z</time>
</trkpt>
<trkpt lat="45.6179700" lon="8.2361100">
<time>2017-08-08T14:24:25.086Z</time>
</trkpt>
<trkpt lat="45.6180100" lon="8.2361800">
<time>2017-08-08T14:24:25.086Z</time>
</trkpt>
<trkpt lat="45.6180600" lon="8.2362700">
<time>2017-08-08T14:24:25.086Z</time>
</trkpt>
<trkpt lat="45.6181100" lon="8.2363300">
<time>2017-08-08T14:24:25.087Z</time>
</trkpt>
<trkpt lat="45.6181600" lon="8.2363800">
<time>2017-08-08T14:24:25.087Z</time>
</trkpt>
<trkpt lat="45.6181700" lon="8.2364100">
<time>2017-08-08T14:24:25.087Z</time>
</trkpt>
<trkpt lat="45.6181700" lon="8.2364800">
<time>2017-08-08T14:24:25.087Z</time>
</trkpt>
<trkpt lat="45.6181700" lon="8.2365700">
<time>2017-08-08T14:24:25.087Z</time>
</trkpt>
<trkpt lat="45.6181600" lon="8.2366500">
<time>2017-08-08T14:24:25.087Z</time>
</trkpt>
<trkpt lat="45.6181500" lon="8.2367100">
<time>2017-08-08T14:24:25.087Z</time>
</trkpt>
<trkpt lat="45.6181500" lon="8.2367900">
<time>2017-08-08T14:24:25.087Z</time>
</trkpt>
<trkpt lat="45.6181900" lon="8.2368400">
<time>2017-08-08T14:24:25.087Z</time>
</trkpt>
<trkpt lat="45.6182100" lon="8.2369400">
<time>2017-08-08T14:24:25.087Z</time>
</trkpt>
<trkpt lat="45.6182000" lon="8.2370100">
<time>2017-08-08T14:24:25.088Z</time>
</trkpt>
<trkpt lat="45.6181800" lon="8.2370700">
<time>2017-08-08T14:24:25.088Z</time>
</trkpt>
<trkpt lat="45.6181400" lon="8.2371300">
<time>2017-08-08T14:24:25.088Z</time>
</trkpt>
<trkpt lat="45.6181100" lon="8.2371700">
<time>2017-08-08T14:24:25.088Z</time>
</trkpt>
<trkpt lat="45.6180500" lon="8.2372100">
<time>2017-08-08T14:24:25.088Z</time>
</trkpt>
<trkpt lat="45.6180100" lon="8.2372500">
<time>2017-08-08T14:24:25.088Z</time>
</trkpt>
<trkpt lat="45.6179700" lon="8.2373000">
<time>2017-08-08T14:24:25.088Z</time>
</trkpt>
<trkpt lat="45.6179100" lon="8.2373700">
<time>2017-08-08T14:24:25.088Z</time>
</trkpt>
<trkpt lat="45.6178600" lon="8.2374400">
<time>2017-08-08T14:24:25.088Z</time>
</trkpt>
<trkpt lat="45.6178200" lon="8.2375000">
<time>2017-08-08T14:24:25.088Z</time>
</trkpt>
<trkpt lat="45.6177700" lon="8.2375700">
<time>2017-08-08T14:24:25.089Z</time>
</trkpt>
<trkpt lat="45.6177400" lon="8.2376100">
<time>2017-08-08T14:24:25.089Z</time>
</trkpt>
<trkpt lat="45.6176100" lon="8.2376400">
<time>2017-08-08T14:24:25.089Z</time>
</trkpt>
<trkpt lat="45.6174100" lon="8.2376900">
<time>2017-08-08T14:24:25.089Z</time>
</trkpt>
</trkseg>
</trk>
</gpx>
